Regional Weather Roundup
Issued by NWS Sioux Falls, SD

Home | Current Version | Previous Version | Graphics & Text | Print | Product List | Glossary Off
Versions: 1 2 3 4 5 6 7 8 9 10 11 12 13 14 15 16 17 18 19 20 21 22 23 24 25 26 27 28 29 30 31 32 33 34 35 36 37 38 39 40 41 42 43 44 45 46 47 48 49 50

000
ASUS43 KFSD 222210
RWRFSD

WEATHER ROUNDUP FOR SE SOUTH DAKOTA/SW MINNESOTA/NW IOWA
NATIONAL WEATHER SERVICE SIOUX FALLS SD
500 PM CDT FRI JUL 22 2016

NOTE: "FAIR" INDICATES FEW OR NO CLOUDS BELOW 12,000 FEET WITH NO
SIGNIFICANT WEATHER AND OR OBSTRUCTIONS TO VISIBILITY.


SDZ038>040-050-052>070-222300-
SOUTHEAST SOUTH DAKOTA

CITY           SKY/WX    TMP DP  RH WIND       PRES   REMARKS
BROOKINGS      MOSUNNY   90  77  65 E10       30.02R HX 103
CHAMBERLAIN    SUNNY     99  76  48 E8G16     29.95R HX 114
HURON          CLOUDY    90  74  59 NE18      30.00R HX  99
MADISON        FAIR      86  81  84 E10       30.01R HX 102
MITCHELL       MOSUNNY   94  78  60 E17       29.96R HX 110
SIOUX FALLS    PTSUNNY   92  79  65 NE15      29.96S HX 108
WINNER         FAIR      97  70  41 E9        29.95F HX 103
YANKTON        PTSUNNY   93  81  66 NE12      29.89F HX 113
$$

MNZ071-072-080-081-089-090-097-098-222300-
SOUTHWEST MINNESOTA

CITY           SKY/WX    TMP DP  RH WIND       PRES   REMARKS
FAIRMONT       MOSUNNY   88  66  48 E6        29.98F
JACKSON        PTSUNNY   88  77  70 E7        30.01F HX 100
LUVERNE        PTSUNNY   90  77  66 E9        29.98R HX 102
MARSHALL       MOSUNNY   89  76  65 E13       30.01R HX 100
MONTEVIDEO     SUNNY     95  66  38 E7        30.03R HX  98
REDWOOD FALLS  SUNNY     91  67  44 E7        29.99S
TRACY          MOSUNNY   91  79  68 NE8       30.01R HX 106
WINDOM         SUNNY     90  79  70 E9        30.00S HX 105
WORTHINGTON    MOSUNNY   87  80  79 E10       30.00F HX 103
$$

IAZ001>003-012>014-020>022-031-032-NEZ013-014-SDZ071-222300-
NORTHWEST IOWA

CITY           SKY/WX    TMP DP  RH WIND       PRES   REMARKS
CHEROKEE       PTSUNNY   92  79  66 SE7       29.95S HX 109
DENISON        MOSUNNY   88  79  74 S10       29.93F HX 102
ESTHERVILLE    PTSUNNY   86  81  85 NE9       29.98F HX 102
LE MARS        MOSUNNY   93  79  62 VRB7      29.94S HX 110
SHELDON        PTSUNNY   88  82  84 MISG      29.96S HX 108
SIOUX CITY     MOSUNNY   94  76  55 SE8       29.91F HX 106
SPENCER        PTSUNNY   90  79  70 E9        29.97F HX 106
STORM LAKE     MOSUNNY   88  81  79 S7        29.97S HX 105
$$

ABBREVIATIONS USED IN REMARKS
   TC - TEMPERATURE IN CELSIUS
  WCI - WIND CHILL INDEX
   HX - HEAT INDEX
  VSB - VISIBILITY




USA.gov is the U.S. government's official web portal to all federal, state and local government web resources and services.